Погода Екеже

Погода Екеже : погода сейчас, прогноз погоды и архив. Всё, что Вы хотите узнать о погоде Екеже!

Хотите узнать прогноз погоды Екеже? Тогда Вам сюда: Погода Екеже

Поиск расширенной информации на нашем сайте:

Другие новости

Новости СМИ2

Главная страница сайта

Новости сайта

03.07.2017

Напоминаем, что на нашем специализированном сайте Метеоцентр.Азия вы можете получить высокодетализированные автоматические прогнозы погоды по пунктам России, СНГ и мира в авиационном формате (включающие направление и скорость ветра, видимость, явления погоды, количество и форму облачности, нижнюю и верхнюю границу облачности).


Погода Екеже - сегодня

Время (UTC), дата Ветер
(°,м/с) 
Видим.   Явления Облачность Т
(°С)
Тd
(°С)
f(%) Тe
(°С)
Pmin
(гПа)
dP
(гПа)
Po
(мм)
O2
(г/м3)
Тmin Tmax R s Состояние
почвы
09 14.08.18 тихо ()   20000 м    4/0 средняя 
[Ac trans]
+37.4 +10.2 19 +39  1008.5  -0.8  752  265           
12 14.08.18 110 (В) 20000 м    6/0 средняя 
[Ac trans]
+38.6 +8.4 16 +39  1007.4  -0.9  751  264           
15 14.08.18 360 (С) 20000 м    8/8 600 м кучево-дожд. 
[Cb cap]
+34.8 +8 19 +35  1007.2  -0.4  751  267    +39       
18 14.08.18 050 (СВ) 20000 м    ясно 
+32.4 +6.4 20 +32  1009.5  2.2  752  270    +39       
21 14.08.18 050 (СВ) 20000 м    ясно 
+28.2 +5.6 24 +28  1010.2  0.7  753  274           
00 15.08.18 050 (СВ) 20000 м    ясно 
+24.7 +4.5 27 +25  1010.4  0.2  753  278           
03 15.08.18 020 (С) 20000 м    6/0 средняя 
[Ac trans]
+26 +6.2 28 +26  1011.5  754  276           
06 15.08.18 тихо ()   20000 м    4/0 верхняя 
[Cc]
+35 +9.8 22 +36  1011.6  0.3  754  268  +24.5         
09 15.08.18 тихо ()   20000 м    ясно 
+38 +9.3 18 +38  1010.7  -0.7  753  265           
12 15.08.18 200 (Ю) 20000 м    ясно 
+39.8 +9.9 17 +41  1009.2  -1.5  752  263           
15 15.08.18 020 (С) 20000 м    ясно 
+36.2 +8.8 19 +36  1009.7  0.3  752  266    +40.2       
18 15.08.18 050 (СВ) 20000 м    ясно 
+31.4 +9 25 +31  1010.5  0.7  753  271    +40.2       
21 15.08.18 050 (СВ) 20000 м    ясно 
+28.6 +9.2 30 +29  1010.8  0.3  753  273           
00 16.08.18 050 (СВ) 20000 м    ясно 
+25 +8 34 +25  1011  0.1  753  277           
03 16.08.18 020 (С) 10 км    6/0 средняя 
[Ac trans]
+25.6 +8.4 34 +26  1012.2  1.1  754  276           
06 16.08.18 090 (В) 10 км    3/0 средняя 
[Ac trans]
+35 +10.9 23 +37  1013.1  1.2  755  268  +24.8         
12 16.08.18 050 (СВ) 20000 м    ясно 
+39.2 +10.5 18 +41  1010.2  -1.5  753  264           
15 16.08.18 070 (В) 20000 м    ясно 
+36.5 +8.5 18 +37  1010  -0.4  753  266    +39.6       
18 16.08.18 050 (СВ) 20000 м    ясно 
+31.4 +5.6 20 +31  1011.3  1.2  754  271    +39.6       
21 16.08.18 050 (СВ) 20000 м    ясно 
+28 +4.6 22 +28  1011.8  0.5  754  275           
06 17.08.18 070 (В) 20000 м    ясно 
+34.6 +7.6 19 +35  1011.8  754  268  +26.2         
09 17.08.18 050 (СВ) 20000 м    ясно 
+37.1 +7.1 16 +37  1010  -1.8  753  266           
12 17.08.18 050 (СВ) 20000 м    ясно 
+38.2 +7.6 16 +38  1003.8  -2  751  264           
15 17.08.18 070 (В) 20000 м    ясно 
+34.6 +4.8 16 +35  1006.8  -1.2  750  268    +38.6       
18 17.08.18 050 (СВ) 20000 м    ясно 
+29.6 +2.3 17 +30  1007.1  0.2  750  272    +38.6       
Время (UTC), дата Ветер
(°,м/с) 
Видим.   Явления Облачность Т
(°С)
Тd
(°С)
f(%) Тe
(°С)
Pmin
(гПа)
dP
(гПа)
Po
(мм)
O2
(г/м3)
Тmin Tmax R s Состояние
почвы

Для получения пояснительной информации подведите курсор к названию столбца.

ПОГОДА Екеже - архив

Всё, что Вы хотите узнать о погоде Екеже - удобно и подробно!

Выберите нужную дату (начиная с 1 января 2015* года) и нажмите кнопку "Найти".
Будут отображены архивные сводки погоды по пункту Екеже, начиная с указанной даты.


Отображать данные в формате CSV (для использования в таблицах Excel)


Внимание! Наш архив погоды предназначен исключительно для личного некоммерческого использования в познавательных целях. Если Вам необходимы официальные справки о состоянии погоды (для производственных, юридических, коммерческих и т.п. целей), обращайтесь в органы Росгидромета.

*Примечание: данная дата относится к архиву по метеостанциям СССР (Россия, СНГ, Балтия).
Архив по метеостанциям Зарубежной Европы и Азии (кроме Китая) хранится 10 дней, по другим регионам земного шара (Китай, Африка, Америка, Австралия, Океания) - 1 день.

Екеже - район местоположения метеостанции


Название, широта, долгота, высота метеостанции:
Екеже 41°ш. 57.8°д. 308 м над ур. моря [Туркменистан]

Дополнительная информация

В oтличие oт бoльшинства пoгoдных сайтoв мы публикуем пoдрoбную метеoинфoрмацию в детальнoм прoфессиoнальнoм фoрмате.

Характеристики температуры и влажнoсти вoздуха измеряются на высoте 2 м в тени вдали oт зданий и деревьев.
Скoрoсть ветра измеряется на высoте 10 м (на урoвне рoста челoвека скoрoсть ветра ниже в 1.5-2 раза). Если метеoстанция нахoдится в гoрoде или в лесу, тo скoрoсть ветра занижена на 2-4 м/с пo сравнению с oткрытым местoм. Скoрoсть ветра над акватoриями крупных рек и oзёр, а также на вершинах хoлмoв на 2-5 м/с выше, чем в oбычных услoвиях.
Атмoсфернoе давление в разных тoчках местнoсти мoжет значительнo oтличаться oт давления на метеoстанции, в зависимoсти oт услoвий рельефа (при пoдъёме на 10 м давление пoнижается примернo на 1 мм рт.ст.).